Content
SEND FEEDBACK

Daily
Averages
Monthly
Summary
United States of America

ROCK HILL, NEW YORK


Home > North America > United States > New York
Elevation: 384 meters     Latitude: 41 35N     Longitude: 074 37W

WEATHER
 
SELECT A DAY
Number of Records: 453,075;   Date Range: 1/1/95 - 11/26/14
 
SHARE

PRINT THIS DATA

[ ← Previous Day ]
WEATHER ALMANAC - 2 FEBRUARY, 2014
[ Next Day → ]
[ °F ]   °C
Weather ElementAverageHighLow
Temperature0.9 °C4 °C (10:15 am)-2 °C (3:15 am)
Dewpoint-3.1 °C-1 °C (12:35 pm)-6 °C (2:15 am)
Humidity75.5 %86 % (3:55 am)61 % (10:15 am)
Barometer1014.6 hPa1019 hPa (11:55 pm)1011.9 hPa (5:55 am)
Wind Speed8.2 km/h18.5 km/h (4:15 pm)
Wind Gust27.8 km/h (4:15 pm)
Weather ElementAverage
Visibility15.1 km
Wind DirectionWSW (231.5 °)

Weather ElementTotal
Precipitation---
Heating Degree Days17.3 (Base 18.3)
Averaged from 71 records on 2 February, 2014
WEATHER CONDITIONS BREAKOUT
WIND DIRECTION BREAKOUT
WEATHER BY HOUR - 2 FEBRUARY, 2014
[ °F ]   °C
Local TimeTemperatureDewpointHumidityBarometerVisibilityWind DirectionWind SpeedGust SpeedPrecipitationEventsConditions
12:35 AM1 °C-4 °C70 %1015.2 hPa16.1 kmCalmOvercast
12:55 AM1 °C-3 °C75 %1014.9 hPa16.1 kmCalmMostly Cloudy
1:15 AM1 °C-3 °C75 %1014.2 hPa16.1 kmCalmPartly Cloudy
1:35 AM0 °C-3 °C80 %1013.9 hPa16.1 kmCalmClear
1:55 AM0 °C-3 °C80 %1013.5 hPa16.1 kmCalmClear
2:15 AM-1 °C-6 °C69 %1013.5 hPa16.1 kmCalmClear
2:35 AM-1 °C-4 °C80 %1013.2 hPa16.1 kmCalmClear
2:55 AM-1 °C-4 °C80 %1012.9 hPa16.1 kmCalmClear
3:15 AM-2 °C-6 °C74 %1013.2 hPa16.1 kmCalmClear
3:35 AM-1 °C-4 °C80 %1012.9 hPa16.1 kmCalmClear
3:55 AM-2 °C-4 °C86 %1012.5 hPa14.5 kmCalmClear
4:15 AM-2 °C-5 °C80 %1012.5 hPa14.5 kmNorth (350°)7.4 km/hClear
4:35 AM-2 °C-4 °C86 %1012.5 hPa16.1 kmCalmClear
4:55 AM-2 °C-4 °C86 %1012.5 hPa11.3 kmWNW (300°)7.4 km/hClear
5:15 AM-1 °C-4 °C80 %1012.5 hPa16.1 kmWNW (300°)5.6 km/hClear
5:35 AM-1 °C-4 °C80 %1012.2 hPa16.1 kmNW (310°)5.6 km/hClear
5:55 AM-2 °C-5 °C80 %1011.9 hPa14.5 kmCalmClear
6:15 AM-1 °C-4 °C80 %1012.2 hPa16.1 kmWest (280°)7.4 km/hClear
6:35 AM-1 °C-4 °C80 %1012.2 hPa16.1 kmNW (310°)5.6 km/hPartly Cloudy
6:55 AM-1 °C-4 °C80 %1012.2 hPa16.1 kmWest (260°)7.4 km/hPartly Cloudy
7:15 AM-1 °C-4 °C80 %1012.5 hPa16.1 kmWest (270°)5.6 km/hMostly Cloudy
7:35 AM0 °C-3 °C80 %1012.5 hPa16.1 kmWest (270°)5.6 km/hOvercast
7:55 AM0 °C-3 °C80 %1012.5 hPa16.1 kmCalmOvercast
8:15 AM1 °C-3 °C75 %1012.9 hPa16.1 kmWSW (250°)7.4 km/hOvercast
8:35 AM1 °C-3 °C75 %1012.5 hPa16.1 kmCalmOvercast
8:55 AM1 °C-3 °C75 %1012.9 hPa16.1 kmWest (260°)7.4 km/hOvercast
9:15 AM2 °C-3 °C70 %1012.9 hPa16.1 kmWest (280°)7.4 km/hOvercast
9:35 AM2 °C-3 °C70 %1013.2 hPa16.1 kmWest (270°)7.4 km/hOvercast
9:55 AM3 °C-3 °C65 %1013.2 hPa16.1 kmWest (280°)13 km/hOvercast
10:15 AM4 °C-3 °C61 %1013.9 hPa16.1 kmWNW (290°)11.1 km/hOvercast
10:35 AM4 °C-3 °C61 %1014.2 hPa16.1 kmWest (280°)11.1 km/hOvercast
10:55 AM4 °C-3 °C61 %1014.2 hPa16.1 kmWNW (300°)9.3 km/hOvercast
11:15 AM4 °C-3 °C61 %1014.2 hPa16.1 kmWest (280°)11.1 km/hOvercast
11:35 AM3 °C-3 °C65 %1014.2 hPa16.1 kmWNW (290°)13 km/hOvercast
11:55 AM3 °C-2 °C70 %1013.9 hPa12.9 kmWNW (290°)11.1 km/hOvercast
12:15 PM2 °C-2 °C75 %1013.9 hPa8 kmWest (280°)11.1 km/hOvercast
12:35 PM2 °C-1 °C81 %1013.9 hPa11.3 kmWNW (290°)13 km/hMostly Cloudy
12:55 PM2 °C-1 °C81 %1013.5 hPa11.3 kmWest (280°)9.3 km/hMostly Cloudy
1:15 PM2 °C-1 °C81 %1013.2 hPa8 kmCalmScattered Clouds
1:35 PM2 °C-1 °C81 %1012.9 hPa8 kmWest (270°)5.6 km/hMostly Cloudy
1:55 PM2 °C-1 °C81 %1013.2 hPa8 kmWest (270°)7.4 km/hOvercast
2:15 PM2 °C-1 °C81 %1012.9 hPa11.3 kmWNW (290°)11.1 km/hOvercast
2:35 PM2 °C-1 °C81 %1013.5 hPa11.3 kmWest (280°)13 km/hOvercast
2:55 PM2 °C-1 °C81 %1013.2 hPa11.3 kmWNW (300°)9.3 km/hOvercast
3:15 PM2 °C-1 °C81 %1013.5 hPa12.9 kmWNW (290°)9.3 km/hOvercast
3:35 PM2 °C-1 °C81 %1014.2 hPa16.1 kmWNW (290°)13 km/hOvercast
3:55 PM2 °C-1 °C81 %1014.2 hPa16.1 kmNW (310°)14.8 km/hOvercast
4:15 PM2 °C-1 °C81 %1014.2 hPa16.1 kmNW (310°)18.5 km/h27.8 km/hOvercast
4:35 PM2 °C-1 °C81 %1014.9 hPa16.1 kmNW (310°)11.1 km/hOvercast
4:55 PM2 °C-1 °C81 %1014.9 hPa16.1 kmNW (320°)9.3 km/hOvercast
5:15 PM2 °C-2 °C75 %1014.6 hPa16.1 kmNNW (330°)13 km/hOvercast
5:35 PM2 °C-2 °C75 %1015.2 hPa16.1 kmNW (310°)11.1 km/hOvercast
5:55 PM2 °C-2 °C75 %1015.2 hPa16.1 kmWNW (290°)7.4 km/hOvercast
6:15 PM2 °C-2 °C75 %1015.6 hPa16.1 kmWNW (290°)9.3 km/hOvercast
6:35 PM2 °C-2 °C75 %1016.3 hPa16.1 kmWNW (300°)9.3 km/hOvercast
6:55 PM2 °C-3 °C70 %1016.9 hPa16.1 kmNW (310°)11.1 km/hOvercast
7:15 PM2 °C-3 °C70 %1017.3 hPa16.1 kmNW (310°)11.1 km/hOvercast
7:35 PM2 °C-3 °C70 %1016.9 hPa16.1 kmNNW (330°)11.1 km/hOvercast
7:55 PM1 °C-3 °C75 %1017.3 hPa16.1 kmNW (310°)9.3 km/hOvercast
8:15 PM1 °C-3 °C75 %1017.6 hPa16.1 kmNW (310°)11.1 km/hMostly Cloudy
8:35 PM1 °C-4 °C70 %1017.6 hPa16.1 kmNW (320°)14.8 km/hOvercast
8:55 PM1 °C-4 °C70 %1017.6 hPa16.1 kmNW (320°)14.8 km/hMostly Cloudy
9:15 PM1 °C-4 °C70 %1017.9 hPa16.1 kmNNW (330°)18.5 km/h25.9 km/hMostly Cloudy
9:35 PM1 °C-4 °C70 %1017.9 hPa16.1 kmNNW (330°)18.5 km/h27.8 km/hOvercast
9:55 PM1 °C-4 °C70 %1017.9 hPa16.1 kmNNW (340°)14.8 km/hOvercast
10:15 PM1 °C-4 °C70 %1018.3 hPa16.1 kmNNW (330°)14.8 km/hOvercast
10:35 PM0 °C-4 °C75 %1018.3 hPa16.1 kmNW (310°)13 km/hOvercast
10:55 PM0 °C-4 °C75 %1018.6 hPa16.1 kmWNW (300°)5.6 km/hOvercast
11:15 PM0 °C-4 °C75 %1018.6 hPa16.1 kmNNW (330°)14.8 km/hOvercast
11:35 PM0 °C-5 °C69 %1018.6 hPa16.1 kmNW (320°)16.7 km/hScattered Clouds
11:55 PM-1 °C-6 °C69 %1019 hPa16.1 kmNW (310°)13 km/hMostly Cloudy
Hourly data recorded from KMSV, located 0 kilometers away from Rock Hill, New York







STORIES FROM OUR PARTNERS